QPF
0.00 0.00 0.02 0.02 0.02 0.02 0.01 0.01 0.01 0.01 0.01 0.00 0.00 0.00 0.00 0.00 0.01 0.01 0.01 0.01 0.00 0.00 0.00 0.00 0.00 0.00 0.00 0.00 0.00 0.00 0.00 0.00 0.00 0.00 0.01 0.01 0.01 0.00 0.00 0.00 0.00 0.00 0.00
0.00 0.00 0.02 0.02 0.02 0.02 0.02 0.01 0.01 0.01 0.00 0.00 0.00 0.00 0.00 0.00 0.01 0.01 0.00 0.00 0.00 0.00 0.00 0.00 0.00 0.00 0.00 0.00 0.00 0.00 0.00 0.00 0.00 0.00 0.00 0.00 0.00 0.00 0.00 0.00 0.00 0.00 0.00
0.00 0.00 0.01 0.01 0.02 0.02 0.01 0.01 0.00 0.00 0.00 0.01 0.01 0.01 0.01 0.00 0.00 0.00 0.00 0.00 0.00 0.00 0.00 0.00 0.00 0.00 0.00 0.00 0.00 0.00 0.00 0.00 0.00 0.00 0.00 0.00 0.00 0.00 0.00 0.00 0.00 0.00 0.00
0.00 0.00 0.01 0.01 0.02 0.02 0.01 0.01 0.00 0.00 0.00 0.01 0.01 0.01 0.01 0.00 0.00 0.00 0.00 0.00 0.00 0.00 0.00 0.00 0.00 0.00 0.00 0.00 0.00 0.00 0.00 0.00 0.00 0.00 0.00 0.00 0.00 0.00 0.00 0.00 0.00 0.00 0.00
0.00 0.00 0.01 0.01 0.01 0.01 0.01 0.01 0.00 0.00 0.00 0.00 0.01 0.00 0.01 0.00 0.00 0.00 0.00 0.00 0.00 0.00 0.00 0.00 0.00 0.00 0.00 0.00 0.00 0.00 0.00 0.00 0.00 0.00 0.00 0.00 0.00 0.00 0.00 0.00 0.00 0.00 0.01
0.00 0.00 0.01 0.01 0.01 0.01 0.01 0.01 0.00 0.00 0.00 0.00 0.00 0.00 0.01 0.00 0.00 0.00 0.00 0.00 0.00 0.00 0.00 0.00 0.00 0.00 0.00 0.00 0.00 0.00 0.00 0.00 0.00 0.00 0.00 0.00 0.00 0.01 0.01 0.00 0.00 0.01 0.01
0.00 0.00 0.01 0.01 0.01 0.01 0.01 0.01 0.00 0.00 0.00 0.00 0.00 0.00 0.00 0.00 0.00 0.00 0.00 0.00 0.00 0.00 0.00 0.00 0.00 0.00 0.00 0.00 0.00 0.00 0.00 0.00 0.00 0.00 0.00 0.00 0.00 0.01 0.01 0.01 0.01 0.01 0.01
0.00 0.00 0.01 0.02 0.01 0.01 0.01 0.01 0.00 0.00 0.00 0.00 0.00 0.00 0.00 0.00 0.00 0.00 0.00 0.00 0.00 0.00 0.00 0.00 0.00 0.00 0.00 0.00 0.00 0.00 0.00 0.00 0.00 0.00 0.00 0.00 0.00 0.00 0.01 0.01 0.01 0.01 0.01
0.00 0.00 0.01 0.02 0.01 0.01 0.01 0.01 0.00 0.00 0.00 0.00 0.00 0.00 0.00 0.00 0.00 0.00 0.00 0.00 0.00 0.00 0.00 0.00 0.00 0.00 0.00 0.00 0.00 0.00 0.00 0.00 0.00 0.00 0.00 0.00 0.00 0.01 0.01 0.01 0.01 0.01 0.01
0.00 0.00 0.01 0.01 0.01 0.01 0.01 0.01 0.00 0.00 0.00 0.00 0.00 0.00 0.00 0.00 0.00 0.00 0.00 0.00 0.00 0.00 0.00 0.00 0.00 0.00 0.00 0.00 0.00 0.00 0.00 0.00 0.00 0.00 0.00 0.00 0.00 0.01 0.01 0.01 0.01 0.01 0.01
0.00 0.00 0.01 0.01 0.01 0.01 0.01 0.01 0.00 0.00 0.00 0.00 0.00 0.00 0.00 0.00 0.00 0.00 0.00 0.00 0.00 0.00 0.00 0.00 0.00 0.00 0.00 0.00 0.00 0.00 0.00 0.00 0.00 0.00 0.00 0.00 0.01 0.01 0.01 0.01 0.01 0.00 0.01
0.00 0.00 0.01 0.01 0.00 0.00 0.00 0.01 0.01 0.00 0.00 0.00 0.00 0.00 0.00 0.00 0.00 0.00 0.00 0.00 0.00 0.00 0.00 0.00 0.00 0.00 0.00 0.00 0.00 0.00 0.00 0.00 0.00 0.00 0.00 0.00 0.00 0.00 0.00 0.00 0.00 0.00 0.00
0.00 0.00 0.00 0.00 0.00 0.00 0.00 0.00 0.00 0.00 0.00 0.00 0.00 0.00 0.00 0.00 0.00 0.00 0.00 0.00 0.00 0.00 0.00 0.00 0.00 0.00 0.00 0.00 0.00 0.00 0.00 0.00 0.00 0.00 0.00 0.00 0.00 0.00 0.00 0.00 0.00 0.00 0.00
0.00 0.00 0.00 0.00 0.00 0.00 0.00 0.00 0.00 0.00 0.00 0.00 0.00 0.00 0.00 0.00 0.00 0.00 0.00 0.00 0.00 0.00 0.00 0.00 0.00 0.00 0.00 0.00 0.00 0.00 0.00 0.00 0.00 0.00 0.00 0.00 0.00 0.00 0.00 0.00 0.00 0.00 0.00
0.00 0.00 0.00 0.00 0.00 0.00 0.00 0.00 0.00 0.00 0.00 0.00 0.00 0.00 0.00 0.00 0.00 0.00 0.00 0.00 0.00 0.00 0.00 0.00 0.00 0.00 0.00 0.00 0.00 0.00 0.00 0.00 0.00 0.00 0.00 0.00 0.00 0.00 0.00 0.00 0.00 0.00 0.00
0.00 0.00 0.00 0.00 0.00 0.00 0.00 0.00 0.00 0.00 0.00 0.00 0.00 0.00 0.00 0.00 0.00 0.00 0.00 0.00 0.00 0.00 0.00 0.00 0.00 0.00 0.00 0.00 0.00 0.00 0.00 0.00 0.00 0.00 0.00 0.00 0.00 0.00 0.00 0.00 0.00 0.00 0.00
0.00 0.00 0.00 0.00 0.00 0.00 0.00 0.00 0.00 0.00 0.00 0.00 0.00 0.00 0.00 0.00 0.00 0.00 0.00 0.00 0.00 0.00 0.00 0.00 0.00 0.00 0.00 0.00 0.00 0.00 0.00 0.00 0.00 0.00 0.00 0.00 0.00 0.00 0.00 0.00 0.00 0.00 0.00
0.00 0.00 0.00 0.00 0.00 0.00 0.00 0.00 0.00 0.00 0.00 0.00 0.00 0.00 0.00 0.00 0.00 0.00 0.00 0.00 0.00 0.00 0.00 0.00 0.00 0.00 0.00 0.00 0.00 0.00 0.00 0.00 0.00 0.00 0.00 0.00 0.00 0.00 0.00 0.00 0.00 0.00 0.00
0.00 0.00 0.00 0.00 0.00 0.00 0.00 0.00 0.00 0.00 0.00 0.00 0.00 0.00 0.00 0.00 0.00 0.00 0.00 0.00 0.00 0.00 0.00 0.00 0.00 0.00 0.00 0.00 0.00 0.00 0.00 0.00 0.00 0.00 0.00 0.00 0.00 0.00 0.00 0.00 0.00 0.00 0.00
0.00 0.00 0.00 0.00 0.00 0.00 0.00 0.00 0.00 0.00 0.00 0.00 0.00 0.00 0.00 0.00 0.00 0.00 0.00 0.00 0.00 0.00 0.00 0.00 0.00 0.00 0.00 0.00 0.00 0.00 0.00 0.00 0.00 0.00 0.00 0.00 0.00 0.00 0.00 0.00 0.00 0.00 0.00
0.00 0.00 0.00 0.00 0.00 0.00 0.00 0.00 0.00 0.00 0.00 0.00 0.00 0.00 0.00 0.00 0.00 0.00 0.00 0.00 0.00 0.00 0.00 0.00 0.00 0.00 0.00 0.00 0.00 0.00 0.00 0.00 0.00 0.00 0.00 0.00 0.00 0.00 0.00 0.00 0.00 0.00 0.00
0.00 0.00 0.00 0.00 0.00 0.00 0.00 0.00 0.00 0.00 0.00 0.00 0.00 0.00 0.00 0.00 0.00 0.00 0.00 0.00 0.00 0.00 0.00 0.00 0.00 0.00 0.00 0.00 0.00 0.00 0.00 0.00 0.00 0.00 0.00 0.00 0.00 0.00 0.00 0.00 0.00 0.00 0.00
0.00 0.00 0.00 0.00 0.00 0.00 0.00 0.00 0.00 0.00 0.00 0.00 0.00 0.00 0.00 0.00 0.00 0.00 0.00 0.00 0.00 0.00 0.00 0.00 0.00 0.00 0.00 0.00 0.00 0.00 0.00 0.00 0.00 0.00 0.00 0.00 0.00 0.00 0.00 0.00 0.00 0.00 0.00
0.00 0.00 0.00 0.00 0.00 0.00 0.00 0.00 0.00 0.00 0.00 0.00 0.00 0.00 0.00 0.00 0.00 0.00 0.00 0.00 0.00 0.00 0.00 0.00 0.00 0.00 0.00 0.00 0.00 0.00 0.00 0.00 0.00 0.00 0.00 0.00 0.00 0.00 0.00 0.00 0.00 0.00 0.00
0.00 0.00 0.00 0.00 0.00 0.00 0.00 0.00 0.00 0.00 0.00 0.00 0.00 0.00 0.00 0.00 0.00 0.00 0.00 0.00 0.00 0.00 0.00 0.00 0.00 0.00 0.00 0.00 0.00 0.00 0.00 0.00 0.00 0.00 0.00 0.00 0.00 0.00 0.00 0.00 0.00 0.00 0.00
0.00 0.00 0.00 0.00 0.00 0.00 0.00 0.00 0.00 0.00 0.00 0.00 0.00 0.00 0.00 0.00 0.00 0.00 0.01 0.00 0.00 0.00 0.00 0.00 0.00 0.00 0.00 0.00 0.00 0.00 0.00 0.00 0.00 0.00 0.00 0.00 0.00 0.00 0.00 0.00 0.00 0.00 0.00
MSLP
1012.82 1013.21 1013.66 1014.13 1014.60 1015.03 1015.40 1015.69 1015.91 1016.09 1016.24 1016.40 1016.59 1016.80 1017.04 1017.27 1017.47 1017.62 1017.71 1017.73 1017.70 1017.65 1017.60 1017.58 1017.60 1017.66 1017.74 1017.84 1017.94 1018.00 1018.03 1018.03 1017.99 1017.95 1017.89 1017.84 1017.80 1017.77 1017.74 1017.70 1017.63 1017.55 1017.44
1012.36 1012.81 1013.34 1013.91 1014.48 1015.00 1015.46 1015.82 1016.09 1016.29 1016.46 1016.63 1016.82 1017.04 1017.29 1017.55 1017.78 1017.96 1018.08 1018.13 1018.13 1018.10 1018.07 1018.07 1018.11 1018.18 1018.28 1018.38 1018.46 1018.50 1018.50 1018.46 1018.39 1018.30 1018.23 1018.17 1018.14 1018.13 1018.12 1018.10 1018.05 1017.97 1017.86
1011.98 1012.49 1013.08 1013.73 1014.39 1015.01 1015.55 1015.98 1016.30 1016.54 1016.73 1016.90 1017.09 1017.31 1017.56 1017.82 1018.06 1018.26 1018.40 1018.48 1018.51 1018.51 1018.52 1018.55 1018.62 1018.72 1018.83 1018.93 1018.99 1019.00 1018.96 1018.87 1018.75 1018.63 1018.53 1018.46 1018.43 1018.42 1018.42 1018.41 1018.38 1018.30 1018.19
1011.75 1012.30 1012.94 1013.64 1014.37 1015.06 1015.67 1016.16 1016.54 1016.81 1017.02 1017.20 1017.39 1017.60 1017.84 1018.09 1018.33 1018.53 1018.68 1018.77 1018.83 1018.87 1018.92 1019.00 1019.10 1019.23 1019.35 1019.46 1019.50 1019.49 1019.41 1019.27 1019.11 1018.96 1018.83 1018.74 1018.70 1018.68 1018.68 1018.67 1018.64 1018.56 1018.45
1011.70 1012.26 1012.93 1013.66 1014.42 1015.15 1015.80 1016.33 1016.75 1017.06 1017.30 1017.50 1017.69 1017.90 1018.13 1018.37 1018.59 1018.78 1018.93 1019.04 1019.12 1019.19 1019.28 1019.40 1019.54 1019.70 1019.84 1019.95 1019.99 1019.95 1019.85 1019.68 1019.50 1019.31 1019.16 1019.05 1018.98 1018.95 1018.94 1018.91 1018.86 1018.78 1018.66
1011.81 1012.38 1013.04 1013.77 1014.53 1015.26 1015.92 1016.47 1016.92 1017.26 1017.53 1017.76 1017.97 1018.19 1018.42 1018.65 1018.86 1019.05 1019.19 1019.30 1019.40 1019.49 1019.61 1019.75 1019.92 1020.10 1020.26 1020.37 1020.42 1020.38 1020.26 1020.09 1019.89 1019.69 1019.52 1019.39 1019.31 1019.25 1019.21 1019.17 1019.10 1019.00 1018.88
1012.02 1012.59 1013.23 1013.93 1014.65 1015.35 1016.00 1016.55 1017.01 1017.39 1017.69 1017.96 1018.21 1018.46 1018.71 1018.95 1019.16 1019.34 1019.48 1019.60 1019.69 1019.80 1019.92 1020.08 1020.26 1020.44 1020.61 1020.72 1020.77 1020.73 1020.62 1020.45 1020.26 1020.07 1019.90 1019.76 1019.67 1019.59 1019.53 1019.46 1019.37 1019.26 1019.13
1012.28 1012.82 1013.43 1014.09 1014.75 1015.41 1016.01 1016.55 1017.01 1017.41 1017.76 1018.08 1018.38 1018.68 1018.97 1019.24 1019.48 1019.67 1019.81 1019.92 1020.02 1020.12 1020.23 1020.38 1020.55 1020.72 1020.87 1020.98 1021.03 1021.00 1020.90 1020.76 1020.59 1020.42 1020.27 1020.14 1020.04 1019.96 1019.88 1019.79 1019.69 1019.57 1019.44
1012.48 1013.02 1013.59 1014.20 1014.81 1015.40 1015.96 1016.47 1016.93 1017.35 1017.74 1018.11 1018.48 1018.85 1019.19 1019.51 1019.78 1020.00 1020.16 1020.28 1020.36 1020.45 1020.54 1020.66 1020.79 1020.93 1021.06 1021.15 1021.19 1021.16 1021.09 1020.97 1020.84 1020.71 1020.59 1020.49 1020.41 1020.34 1020.26 1020.16 1020.06 1019.94 1019.81
1012.58 1013.11 1013.67 1014.23 1014.79 1015.34 1015.85 1016.33 1016.79 1017.22 1017.65 1018.08 1018.51 1018.94 1019.35 1019.73 1020.04 1020.30 1020.48 1020.60 1020.69 1020.75 1020.82 1020.90 1020.99 1021.09 1021.18 1021.24 1021.27 1021.25 1021.19 1021.10 1021.01 1020.92 1020.85 1020.79 1020.74 1020.69 1020.63 1020.55 1020.46 1020.34 1020.23
1012.53 1013.08 1013.63 1014.18 1014.71 1015.22 1015.71 1016.17 1016.61 1017.06 1017.51 1017.98 1018.46 1018.95 1019.42 1019.84 1020.21 1020.50 1020.71 1020.85 1020.94 1021.00 1021.04 1021.09 1021.15 1021.21 1021.26 1021.29 1021.30 1021.27 1021.23 1021.17 1021.12 1021.07 1021.05 1021.03 1021.03 1021.02 1020.99 1020.94 1020.87 1020.77 1020.67
1012.34 1012.91 1013.48 1014.04 1014.57 1015.07 1015.55 1016.00 1016.44 1016.89 1017.35 1017.84 1018.35 1018.87 1019.37 1019.84 1020.24 1020.57 1020.81 1020.98 1021.08 1021.15 1021.19 1021.22 1021.25 1021.28 1021.31 1021.32 1021.32 1021.30 1021.26 1021.23 1021.20 1021.19 1021.21 1021.24 1021.28 1021.32 1021.33 1021.32 1021.27 1021.20 1021.12
1012.01 1012.62 1013.23 1013.82 1014.38 1014.90 1015.38 1015.84 1016.28 1016.73 1017.19 1017.69 1018.20 1018.72 1019.23 1019.71 1020.13 1020.49 1020.76 1020.95 1021.09 1021.17 1021.23 1021.27 1021.31 1021.34 1021.36 1021.37 1021.37 1021.35 1021.33 1021.31 1021.31 1021.33 1021.38 1021.45 1021.53 1021.61 1021.66 1021.69 1021.68 1021.63 1021.56
1011.59 1012.25 1012.90 1013.54 1014.14 1014.70 1015.22 1015.69 1016.15 1016.59 1017.05 1017.52 1018.01 1018.51 1019.00 1019.47 1019.90 1020.26 1020.56 1020.79 1020.96 1021.09 1021.18 1021.26 1021.33 1021.38 1021.43 1021.46 1021.47 1021.47 1021.47 1021.47 1021.48 1021.52 1021.59 1021.69 1021.80 1021.91 1022.00 1022.07 1022.08 1022.06 1022.00
1011.13 1011.82 1012.52 1013.21 1013.87 1014.48 1015.04 1015.55 1016.02 1016.47 1016.90 1017.35 1017.80 1018.26 1018.72 1019.17 1019.58 1019.95 1020.26 1020.52 1020.74 1020.91 1021.06 1021.19 1021.31 1021.42 1021.51 1021.58 1021.63 1021.67 1021.69 1021.71 1021.74 1021.79 1021.88 1021.99 1022.12 1022.26 1022.37 1022.46 1022.50 1022.49 1022.43
1010.64 1011.36 1012.11 1012.85 1013.56 1014.22 1014.83 1015.37 1015.87 1016.32 1016.75 1017.17 1017.59 1018.01 1018.43 1018.84 1019.23 1019.60 1019.92 1020.21 1020.47 1020.70 1020.90 1021.10 1021.28 1021.45 1021.61 1021.73 1021.84 1021.91 1021.97 1022.01 1022.07 1022.14 1022.23 1022.35 1022.50 1022.64 1022.77 1022.87 1022.92 1022.91 1022.86
1010.16 1010.90 1011.66 1012.43 1013.18 1013.89 1014.55 1015.14 1015.66 1016.14 1016.57 1016.97 1017.37 1017.75 1018.14 1018.53 1018.90 1019.26 1019.60 1019.91 1020.20 1020.48 1020.74 1020.99 1021.24 1021.47 1021.69 1021.88 1022.04 1022.16 1022.27 1022.35 1022.43 1022.51 1022.62 1022.75 1022.90 1023.05 1023.19 1023.29 1023.34 1023.34 1023.27
1009.69 1010.42 1011.19 1011.97 1012.74 1013.48 1014.18 1014.81 1015.37 1015.87 1016.32 1016.73 1017.12 1017.49 1017.87 1018.24 1018.61 1018.97 1019.32 1019.66 1019.98 1020.29 1020.59 1020.89 1021.19 1021.47 1021.74 1021.98 1022.19 1022.37 1022.52 1022.64 1022.75 1022.86 1022.98 1023.12 1023.28 1023.43 1023.57 1023.68 1023.73 1023.72 1023.65
1009.19 1009.90 1010.66 1011.43 1012.21 1012.98 1013.70 1014.37 1014.97 1015.51 1015.98 1016.41 1016.81 1017.20 1017.57 1017.95 1018.33 1018.71 1019.08 1019.44 1019.79 1020.13 1020.46 1020.79 1021.11 1021.42 1021.72 1022.00 1022.26 1022.48 1022.67 1022.83 1022.97 1023.11 1023.26 1023.41 1023.57 1023.73 1023.88 1023.99 1024.05 1024.04 1023.97
1008.64 1009.32 1010.05 1010.81 1011.59 1012.36 1013.10 1013.80 1014.44 1015.02 1015.54 1016.00 1016.43 1016.83 1017.23 1017.63 1018.04 1018.44 1018.84 1019.23 1019.60 1019.96 1020.31 1020.66 1020.99 1021.32 1021.63 1021.93 1022.21 1022.46 1022.67 1022.87 1023.04 1023.21 1023.38 1023.55 1023.73 1023.90 1024.06 1024.18 1024.25 1024.25 1024.19
1007.98 1008.64 1009.34 1010.08 1010.84 1011.62 1012.38 1013.11 1013.79 1014.41 1014.96 1015.47 1015.93 1016.37 1016.80 1017.23 1017.67 1018.11 1018.55 1018.97 1019.38 1019.76 1020.13 1020.48 1020.82 1021.15 1021.46 1021.76 1022.04 1022.30 1022.53 1022.75 1022.95 1023.13 1023.32 1023.51 1023.70 1023.89 1024.06 1024.20 1024.30 1024.33 1024.31
1007.19 1007.83 1008.50 1009.22 1009.99 1010.77 1011.55 1012.31 1013.03 1013.68 1014.27 1014.81 1015.30 1015.78 1016.24 1016.71 1017.19 1017.67 1018.15 1018.61 1019.06 1019.48 1019.87 1020.23 1020.58 1020.90 1021.21 1021.50 1021.77 1022.02 1022.26 1022.48 1022.68 1022.88 1023.08 1023.28 1023.49 1023.69 1023.88 1024.05 1024.18 1024.26 1024.28
1006.25 1006.87 1007.52 1008.24 1009.00 1009.80 1010.61 1011.40 1012.15 1012.85 1013.47 1014.04 1014.56 1015.05 1015.55 1016.04 1016.55 1017.07 1017.60 1018.12 1018.61 1019.07 1019.51 1019.90 1020.26 1020.58 1020.88 1021.16 1021.43 1021.67 1021.89 1022.10 1022.30 1022.49 1022.69 1022.89 1023.10 1023.32 1023.53 1023.73 1023.91 1024.04 1024.13
1005.18 1005.77 1006.42 1007.14 1007.92 1008.74 1009.59 1010.42 1011.21 1011.94 1012.59 1013.18 1013.72 1014.23 1014.74 1015.25 1015.79 1016.34 1016.91 1017.48 1018.03 1018.55 1019.03 1019.46 1019.86 1020.20 1020.51 1020.79 1021.04 1021.27 1021.47 1021.66 1021.84 1022.01 1022.19 1022.39 1022.59 1022.81 1023.04 1023.27 1023.50 1023.69 1023.85
1004.01 1004.59 1005.23 1005.96 1006.76 1007.61 1008.50 1009.37 1010.21 1010.98 1011.67 1012.28 1012.83 1013.35 1013.86 1014.39 1014.93 1015.51 1016.12 1016.73 1017.33 1017.91 1018.46 1018.95 1019.39 1019.77 1020.11 1020.39 1020.64 1020.85 1021.04 1021.20 1021.35 1021.50 1021.66 1021.83 1022.02 1022.23 1022.47 1022.73 1022.99 1023.24 1023.47
1002.85 1003.40 1004.03 1004.76 1005.57 1006.46 1007.38 1008.30 1009.19 1010.00 1010.73 1011.37 1011.95 1012.48 1012.99 1013.51 1014.07 1014.66 1015.28 1015.93 1016.58 1017.22 1017.82 1018.37 1018.87 1019.30 1019.67 1019.98 1020.24 1020.45 1020.62 1020.76 1020.89 1021.00 1021.13 1021.27 1021.43 1021.64 1021.88 1022.15 1022.44 1022.73 1023.02
Thickness
5762 5760 5753 5751 5748 5746 5744 5743 5741 5740 5739 5738 5737 5735 5734 5733 5732 5731 5730 5729 5728 5726 5725 5724 5723 5722 5721 5719 5718 5716 5715 5714 5713 5712 5711 5710 5709 5708 5707 5706 5707 5706 5704
5765 5759 5752 5749 5746 5744 5742 5740 5739 5737 5736 5735 5733 5732 5730 5729 5728 5726 5725 5724 5723 5722 5720 5719 5718 5717 5715 5714 5712 5710 5709 5708 5706 5705 5705 5704 5703 5702 5700 5699 5698 5698 5696
5762 5757 5750 5747 5744 5742 5740 5738 5736 5734 5733 5731 5730 5728 5727 5725 5724 5722 5721 5719 5718 5716 5715 5714 5712 5711 5709 5707 5706 5704 5703 5701 5700 5699 5700 5700 5697 5695 5694 5692 5691 5691 5689
5759 5754 5750 5745 5742 5739 5737 5735 5733 5731 5729 5728 5726 5724 5723 5721 5719 5718 5716 5714 5713 5711 5709 5708 5706 5704 5703 5701 5700 5698 5696 5694 5693 5694 5695 5693 5691 5688 5687 5685 5684 5683 5682
5755 5751 5747 5742 5739 5737 5734 5732 5730 5728 5726 5724 5722 5721 5719 5717 5715 5713 5711 5710 5707 5705 5704 5702 5701 5699 5697 5695 5693 5691 5689 5688 5687 5688 5687 5685 5683 5681 5680 5678 5677 5676 5675
5751 5748 5743 5739 5736 5734 5731 5729 5727 5725 5723 5721 5719 5717 5715 5713 5711 5709 5706 5704 5702 5700 5698 5697 5695 5693 5691 5689 5687 5685 5683 5681 5683 5681 5679 5678 5676 5674 5672 5671 5670 5669 5668
5747 5744 5739 5735 5733 5730 5728 5726 5723 5721 5719 5717 5715 5713 5711 5708 5706 5703 5701 5699 5697 5695 5693 5692 5690 5687 5685 5683 5681 5678 5676 5675 5676 5674 5672 5670 5668 5666 5665 5663 5662 5660 5659
5742 5740 5736 5731 5729 5727 5724 5722 5720 5718 5716 5713 5711 5709 5706 5704 5701 5699 5697 5694 5692 5690 5688 5686 5684 5681 5679 5677 5674 5672 5669 5668 5668 5667 5665 5663 5659 5658 5657 5655 5654 5652 5651
5737 5736 5733 5729 5726 5723 5721 5719 5716 5714 5712 5709 5707 5705 5702 5699 5697 5694 5692 5689 5687 5685 5682 5680 5678 5675 5673 5670 5668 5665 5663 5661 5663 5659 5657 5655 5652 5651 5649 5647 5645 5643 5641
5732 5732 5731 5728 5725 5721 5718 5715 5713 5710 5708 5705 5703 5700 5697 5694 5692 5689 5687 5684 5682 5679 5677 5674 5672 5669 5666 5664 5661 5658 5656 5656 5655 5653 5650 5647 5644 5643 5641 5638 5636 5634 5632
5727 5728 5728 5726 5723 5720 5717 5712 5709 5706 5704 5701 5698 5695 5693 5691 5689 5685 5682 5679 5676 5674 5671 5668 5666 5663 5660 5657 5654 5652 5651 5651 5648 5645 5642 5638 5636 5634 5632 5630 5627 5625 5623
5724 5726 5725 5724 5721 5718 5715 5711 5708 5705 5701 5699 5697 5693 5691 5688 5685 5681 5676 5673 5671 5668 5665 5662 5660 5657 5656 5654 5650 5647 5647 5644 5641 5638 5633 5629 5628 5626 5623 5621 5618 5615 5613
5726 5723 5723 5721 5718 5716 5713 5710 5707 5704 5700 5697 5695 5691 5688 5684 5680 5677 5674 5670 5667 5663 5662 5657 5656 5654 5651 5648 5645 5643 5639 5637 5634 5630 5626 5621 5619 5618 5615 5612 5609 5606 5604
5723 5721 5720 5718 5716 5713 5711 5708 5705 5702 5698 5695 5691 5688 5685 5681 5678 5675 5671 5668 5664 5660 5657 5654 5651 5648 5645 5641 5638 5636 5632 5629 5626 5622 5617 5613 5611 5608 5606 5603 5600 5597 5594
5722 5720 5718 5716 5714 5711 5708 5706 5703 5700 5696 5692 5688 5685 5682 5678 5674 5671 5668 5663 5660 5656 5653 5649 5647 5643 5639 5635 5631 5628 5625 5622 5618 5614 5609 5604 5601 5599 5596 5593 5590 5587 5584
5722 5719 5717 5714 5712 5709 5706 5703 5700 5697 5693 5690 5686 5682 5678 5675 5671 5667 5664 5659 5655 5651 5648 5644 5641 5636 5633 5629 5625 5621 5618 5614 5610 5606 5602 5597 5593 5589 5586 5583 5580 5577 5574
5722 5719 5716 5713 5710 5707 5704 5701 5698 5695 5691 5688 5683 5679 5675 5672 5667 5663 5660 5655 5650 5646 5642 5638 5634 5630 5626 5622 5619 5614 5611 5607 5603 5599 5594 5590 5586 5581 5577 5574 5570 5567 5565
5721 5718 5715 5711 5708 5705 5702 5699 5696 5692 5689 5685 5681 5677 5672 5668 5664 5659 5655 5651 5646 5641 5636 5633 5629 5625 5621 5617 5613 5608 5604 5599 5596 5591 5587 5583 5578 5574 5569 5565 5561 5558 5555
5722 5718 5714 5711 5708 5704 5700 5696 5693 5690 5686 5683 5679 5674 5669 5665 5660 5655 5651 5647 5641 5636 5631 5627 5623 5620 5616 5610 5606 5601 5597 5593 5589 5584 5581 5576 5571 5566 5562 5557 5553 5549 5546
5721 5718 5714 5710 5706 5702 5697 5693 5690 5686 5683 5680 5676 5672 5667 5662 5657 5652 5647 5642 5637 5631 5627 5622 5618 5612 5609 5604 5599 5595 5591 5586 5582 5578 5574 5569 5564 5559 5555 5550 5547 5543 5538
5718 5716 5714 5710 5706 5701 5697 5693 5689 5685 5682 5678 5673 5669 5664 5659 5654 5648 5644 5638 5632 5628 5623 5618 5613 5607 5602 5597 5593 5590 5586 5581 5577 5571 5567 5563 5558 5553 5548 5544 5540 5536 5533
5719 5717 5714 5711 5708 5704 5700 5696 5691 5686 5680 5676 5670 5665 5661 5656 5651 5645 5640 5635 5629 5624 5618 5613 5607 5602 5597 5591 5589 5586 5584 5579 5572 5566 5561 5556 5552 5547 5542 5537 5534 5529 5526
5719 5718 5716 5714 5710 5705 5699 5692 5686 5680 5675 5671 5667 5663 5658 5653 5648 5642 5637 5632 5626 5620 5615 5609 5603 5598 5593 5586 5582 5580 5577 5578 5572 5564 5557 5551 5546 5542 5537 5532 5527 5523 5519
5720 5719 5716 5713 5709 5704 5697 5691 5686 5682 5679 5675 5669 5663 5656 5651 5645 5639 5634 5628 5622 5617 5612 5606 5599 5594 5589 5583 5576 5570 5568 5566 5561 5560 5554 5547 5541 5536 5532 5526 5521 5517 5512
5719 5716 5714 5712 5708 5703 5697 5692 5686 5682 5679 5674 5667 5660 5654 5648 5642 5636 5630 5624 5619 5613 5608 5602 5595 5590 5585 5580 5574 5567 5561 5556 5553 5551 5551 5545 5537 5532 5526 5521 5515 5510 5505
5714 5712 5710 5708 5705 5701 5695 5690 5685 5681 5676 5671 5665 5658 5652 5646 5639 5633 5627 5621 5616 5610 5604 5598 5592 5586 5580 5575 5569 5564 5558 5553 5549 5544 5542 5540 5536 5529 5521 5514 5508 5503 5498